Regional Weather Roundup
Issued by NWS

Home | Current Version | Previous Version | Graphics & Text | Print | Product List | Glossary On
Versions: 1 2 3 4 5 6 7 8 9 10 11 12 13 14 15 16 17 18 19 20 21 22 23 24 25 26 27 28 29 30 31 32 33 34 35 36 37 38 39 40 41 42 43 44 45 46 47 48 49 50
000
ASUS45 KSLC 191810
RWRUT

UTAH REGIONAL WEATHER ROUNDUP
NATIONAL WEATHER SERVICE SALT LAKE CITY UT
1200 PM MDT THU OCT 19 2017

UTZ001>011-023>025-191900-

NORTHERN UTAH

CITY           SKY/WX    TMP DP  RH WIND       PRES   REMARKS
BRIGHAM CITY     N/A     59  24  26 CALM      30.00F
DUGWAY         MOSUNNY   65  18  16 SE5       30.05F
HILL AFB       SUNNY     63  20  19 E3        30.00F
LOGAN            N/A     56  25  30 CALM      30.00F
OGDEN            N/A     64  22  20 VRB3      29.99F
SALT LAKE CITY   N/A     65  34  31 NW8       29.98F
TOOELE VALLEY    N/A     55  34  44 N6        30.00F
WENDOVER         N/A     51  26  37 SE5       29.99F
WEST JORDAN      N/A     66  29  25 SE12      30.00F

$$

UTZ011>015-024>027-191900-

CENTRAL/NORTHEAST UTAH

CITY           SKY/WX    TMP DP  RH WIND       PRES   REMARKS
PROVO AIRPORT    N/A     60  29  30 SE5       30.02F
MOAB/CANYONLAN   N/A     66  18  15 CALM      30.05F
DELTA          CLOUDY    63  25  23 CALM      30.01F
PRICE            N/A     62  15  16 SE7       30.11S
RICHFIELD      SUNNY     66  36  32 CALM      30.04F
ROOSEVELT        N/A     55  21  26 E3        30.11F
VERNAL           N/A     59  18  20 VRB3      30.09F

$$

UTZ013>016-019>022-027-191900-

SOUTHERN UTAH

CITY           SKY/WX    TMP DP  RH WIND       PRES   REMARKS
BRYCE CANYON     N/A     60  36  40 SE13      30.18F
CEDAR CITY     PTSUNNY   62  44  51 NW3       30.04F
MILFORD        PTSUNNY   68  42  38 S14       30.01F
ST GEORGE        N/A     67  33  28 W3        29.94F
HANKSVILLE       N/A     61  23  23 CALM      30.07F
KANAB          SUNNY     73  30  20 CALM      30.07F
BLANDING         N/A     63  21  19 CALM      30.21S

$$

REGIONAL REPORTS     COLORADO/ARIZONA

CITY           SKY/WX    TMP DP  RH WIND       PRES   REMARKS
CRAIG, CO        N/A     66  14  13 MISG      30.11F
GRAND JUNCTION   N/A     63  16  16 SE6       30.08F
RIFLE, CO        N/A     62  18  18 CALM      30.11F
MONTROSE, CO     N/A     64  22  20 NW6       30.13F
CORTEZ, CO       N/A     69  25  19 MISG      30.14F
COLORADO CITY    N/A     75  34  22 SE10      30.05S
PAGE, AZ       PTSUNNY   66  33  29 NE7       30.04F
GRAND CANYON     N/A     67  30  25 SW9G17    30.14F
KINGMAN, AZ      N/A     82  35  18 SW14      29.95F
FLAGSTAFF, AZ    N/A     65  29  25 S12G21    30.17F

$$

REGIONAL REPORTS    NEVADA/IDAHO/WYOMING

CITY           SKY/WX    TMP DP  RH WIND       PRES   REMARKS
LAS VEGAS, NV    N/A     80  20  10 N3        29.88F
ELY, NY          N/A     66  13  12 S7        30.04F
ELKO, NV         N/A     52  16  24 CALM      29.99F
POCATELLO, ID    N/A     61  30  31 VRB5      29.95F
BURLEY, ID       N/A     65  26  23 E5        29.89F
FORT BRIDGER,    N/A     55  16  21 N3        30.13F
EVANSTON, WY     N/A     61  16  17 SW8       30.09F
ROCK SPRINGS,    N/A     56  14  19 CALM      30.11F
KEMMERER, WY     N/A     59  16  18 CALM      30.12S

$$



USA.gov is the U.S. government's official web portal to all federal, state and local government web resources and services.